www.pogodaiklimat.ru

Погода и климат >> Архив погоды >> Индия >> Amritsar


ПОГОДА в Amritsar

  • Прогноз погоды в Amritsar
  • Монитор погоды в Amritsar
  • Климат города

АРХИВ ПОГОДЫ в Amritsar

Время (UTC), дата Ветер
(напр.,м/с)
 
Видим.   Явления Облачность Т
(С)
Тd
(С)
f
(%)
Тe
(С)
Тes
(С)
Комфортность P
(гПа)
Po
(гПа)
Тmin
(С)
Tmax
(С)
R
(мм)
R24
(мм)
S
(см)
00 12.12 Ю 3 1000 м в посл. час дождь {гроза} 10/5 1050 м
[Sc diur, vesp As op]
+13.6 +13.6 100 +12 +12 1011.6 1012.0 13
03 12.12 Ю 3 500 м туман 10/5 1050 м
[Sc diur, vesp As op]
+13.6 +13.6 100 +12 +13 1014.9 1015.0 +10.8 +15.5 13
06 12.12 Ю 2 500 м туман 10/5 1050 м
[Sc diur, vesp As op]
+14.4 +12.9 91 +14 +15 1017.1 1017.0
09 12.12 нст 1 1000 м туман 10/5 1050 м
[Sc diur, vesp As op]
+15.0 +12.5 85 +15 +16 1016.7 1017.0
12 12.12 штиль 0 500 м туман 10/5 1050 м
[Sc diur, vesp As op]
+15.0 +12.1 83 +15 +15 1017.0 1017.0 +15.8
15 12.12 штиль 0 200 м туман 10/5 1050 м
[Sc diur, vesp As op]
+9.8 +9.0 95 +9 +9 1018.2 1018.0
18 12.12 штиль 0 50 м туман 3/3 1200 м
[Sc diur, vesp]
+10.2 +9.4 95 +9 +9 1018.8 1019.0
21 12.12 штиль 0 50 м туман 3/3 1200 м
[Sc diur, vesp]
+9.0 +9.0 100 +8 +8 1018.1 1018.0
00 13.12 штиль 0 50 м туман ?/? +9.2 +9.2 100 +8 +8 1018.2 1018.0
03 13.12 штиль 0 <50 м туман ?/? +11.2 +11.2 100 +10 +10 1019.2 1019.0 +8.0 +15.8
06 13.12 штиль 0 50 м туман ?/? +12.4 +11.7 95 +12 +12 1021.0 1021.0
09 13.12 штиль 0 500 м туман 9/5 900 м
[Sc Ac As]
+15.0 +12.1 83 +15 +16 1019.5 1020.0
12 13.12 штиль 0 1000 м дымка {туман} 4/4 1050 м
[Sc]
+13.8 +11.9 88 +13 +13 1018.9 1019.0 +15.4
15 13.12 штиль 0 <50 м туман ?/? +9.0 +9.0 100 +8 +8 1020.3 1020.0
18 13.12 штиль 0 <50 м туман ?/? +10.8 +10.0 95 +10 +10 1020.7 1021.0
21 13.12 штиль 0 50 м туман ?/? +10.8 +10.4 97 +10 +10 1020.6 1021.0
00 14.12 З 3 1000 м дымка {туман} ясно +10.4 +10.4 100 +8 +8 1020.6 1021.0
03 14.12 СЗ 2 1000 м дымка {туман} 8/4 1050 м
[Sc diur, vesp Ac trans]
+10.8 +8.8 87 +9 +10 1022.2 1022.0 +9.4 +15.4
06 14.12 нст 1 1000 м дымка 8/4 1050 м
[Sc diur, vesp Ac trans]
+11.0 +9.0 87 +11 +13 1023.5 1024.0
09 14.12 З 3 2000 м дымка 6/4 1050 м
[Sc diur, vesp Ac trans]
+12.2 +9.9 86 +11 +12 1021.3 1021.0
12 14.12 штиль 0 2000 м дымка 6/4 1050 м
[Sc diur, vesp Ac trans]
+11.0 +9.4 90 +10 +10 1020.7 1021.0 +13.4
15 14.12 штиль 0 500 м туман 5/3 1050 м
[Sc diur, vesp Ac trans]
+7.8 +6.9 94 +7 +7 1022.0 1022.0
18 14.12 штиль 0 <50 м туман ?/? +7.4 +7.4 100 +6 +6 1022.2 1022.0
21 14.12 штиль 0 <50 м туман ?/? +7.4 +7.4 100 +6 +6 1021.4 1021.0
00 15.12 штиль 0 <50 м туман ?/? +7.4 +7.4 100 +6 +6 1021.3 1021.0
03 15.12 штиль 0 50 м туман ?/? +7.2 +7.2 100 +6 +6 1023.1 1023.0 +5.7 +13.4
06 15.12 штиль 0 1000 м дымка {туман} 5/0
[Ac trans]
+8.2 +6.5 89 +7 +14 1024.6 1025.0
09 15.12 З 2 2000 м дымка 5/0
[Ac trans]
+12.8 +8.8 77 +12 +16 1022.3 1022.0
12 15.12 штиль 0 2000 м мгла 5/0
[Ci fib]
+14.0 +7.1 63 +14 +14 1021.9 1022.0 +15.8
15 15.12 штиль 0 2000 м дымка 4/0
[Ac trans]
+10.0 +9.2 95 +9 +9 1023.5 1024.0 +15.8
18 15.12 штиль 0 2000 м дымка 3/0
[Ac trans]
+7.3 +7.3 100 +6 +6 1023.9 1024.0
21 15.12 штиль 0 1000 м дымка 3/0
[Ac trans]
+6.6 +6.6 100 +5 +5 1022.8 1023.0
00 16.12 штиль 0 1000 м дымка 1/0
[Ac trans]
+4.3 +4.3 100 +3 +3 1022.1 1022.0
03 16.12 штиль 0 2000 м дымка ясно +6.8 +6.8 100 +6 +7 1023.3 1023.0 +4.1 +15.8
06 16.12 СЗ 4 4000 м мгла 3/0
[Ac trans]
+14.6 +9.1 70 +14 +18 1023.7 1024.0
09 16.12 З 5 4000 м ясно +17.2 +5.7 47 +17 +19 1021.6 1022.0
12 16.12 штиль 0 4000 м мгла ясно +15.6 +6.6 55 +16 +16 1021.1 1021.0 +18.4
15 16.12 штиль 0 2000 м дымка ясно +11.0 +7.3 78 +10 +10 1022.6 1023.0
18 16.12 штиль 0 2000 м дымка ясно +8.3 +8.3 100 +7 +7 1023.2 1023.0
21 16.12 штиль 0 2000 м дымка ясно +5.2 +5.2 100 +4 +4 1023.8 1024.0
00 17.12 штиль 0 1000 м дымка ясно +5.0 +5.0 100 +4 +4 1022.9 1023.0
03 17.12 нст 1 2000 м дымка ясно +5.0 +3.6 91 +4 +4 1024.2 1024.0 +3.3 +18.4
06 17.12 СЗ 4 4000 м мгла ясно +14.4 +7.5 63 +13 +18 1024.5 1025.0
09 17.12 З 3 4000 м мгла 3/0
[Ci fib]
+19.8 +6.8 43 +21 +25 комфорт 1021.3 1021.0
12 17.12 штиль 0 4000 м мгла 3/0
[Ac trans]
+17.0 +8.4 57 +17 +17 1020.9 1021.0 +21.0
15 17.12 штиль 0 2000 м мгла 3/0
[Ac trans]
+12.2 +6.8 70 +12 +12 1022.3 1022.0
18 17.12 штиль 0 2000 м дымка 3/0
[Ac trans]
+10.2 +8.6 90 +9 +9 1023.0 1023.0
21 17.12 СЗ 3 1000 м дымка 3/0
[Ac trans]
+8.5 +8.5 100 +6 +6 1022.4 1022.0
00 18.12 СЗ 4 2000 м дымка 3/0
[Ac trans]
+9.2 +9.2 100 +6 +6 1021.8 1022.0
03 18.12 штиль 0 4000 м дымка ясно +7.8 +4.6 80 +7 +8 1023.3 1023.0 +4.8 +21.0
06 18.12 СЗ 6 4000 м мгла 4/0
[Ci fib]
+17.6 +5.2 44 +17 +20 1022.5 1023.0
09 18.12 З 4 4000 м мгла 4/0
[Ci fib]
+22.6 +4.3 30 +23 +26 комфорт 1019.4 1019.0
12 18.12 З 2 2000 м мгла 8/0
[Ac trans Ci sp]
+17.8 +8.0 53 +18 +18 1019.6 1020.0 +23.2
15 18.12 нст 1 2000 м мгла 4/0
[Ac trans]
+14.8 +8.0 64 +15 +15 1020.8 1021.0
18 18.12 штиль 0 2000 м дымка 4/0
[Ac trans]
+10.2 +8.1 87 +9 +9 1022.0 1022.0

 

Местоположение метеостанции Amritsar (Punjab, Индия): широта 31.63 долгота 74.87 высота над уровнем моря 234 м.

В архиве по умолчанию представлена погода в Amritsar за последнюю неделю. Архивные данные за месяц целиком и за предыдущие месяцы, начиная с января 2011 года, Вы можете получить, выбрав интересующий диапазон дат из раскрывающегося списка и нажав кнопку "Ввод!".

Внимание! Время в таблицах - всемирное. Для получения местного времени необходимо прибавить поправку, которая в Amritsar равна 5.5 ч.

Смотрите также архив погоды в соседних городах и на ближайших метеорологических станциях:

Погода в Lahore City (Пакистан) (52 км)
Погода в Sialkot (Пакистан) (102 км)
Погода в Jammu (Jammu and Kashmir, Индия) (116 км)
Погода в Ludhiana (Punjab, Индия) (132 км)
Погода в Una (Himachal Pradesh, Индия) (134 км)
Погода в Kangra (Himachal Pradesh, Индия) (142 км)
Погода в Katra (Jammu and Kashmir, Индия) (151 км)
Погода в Dharamsala (Himachal Pradesh, Индия) (159 км)
Погода в Batote (Jammu and Kashmir, Индия) (169 км)
Погода в Faisal Abad (Пакистан) (169 км)

Пояснения к столбцам:

Ветер - указаны скорость ветра в м/с - средняя за 10 мин, порывы в срок и между сроками (в фигурных скобках) и направление, откуда дует ветер: С - северный, СВ - северо-восточный, В - восточный, ЮВ - юго-восточный, Ю - южный, ЮЗ - юго-западный, З - западный, СЗ - северо-западный.
Видимость - горизонтальная дальность видимости в метрах или километрах. При видимости от 1 до 10 км при отсутствии осадков обычно наблюдается дымка, при ухудшении видимости до 1 км и менее - туман. В сухую погоду видимость может ухудшаться дымом, пылью или мглою.
Явления - указаны атмосферные явления, наблюдавшиеся в срок или в последний час перед сроком; фигурными скобками обозначены явления, наблюдавшиеся между сроками (за 1-3 часа до срока); квадратными скобками обозначены град или гололедные отложения с указанием их диаметра в мм.
Облачность - указаны через наклонную черту общая и нижняя облачность в баллах и высота нижней границы облаков в метрах; квадратными скобками обозначены формы облаков: Ci - перистые, Cs - перисто-слоистые, Cc - перисто-кучевые, Ac - высококучевые, As - высокослоистые, Sc - слоисто-кучевые, Ns - слоисто-дождевые, Cu - кучевые, Cb - кучево-дождевые. Подробнее классификацию облаков см. в Атласе облаков (PDF).
T - Температура воздуха - температура, измеренная на высоте 2 м над землей.
Td - Температура точки росы - температура, при понижении до которой содержащийся в воздухе водяной пар достигнет насыщения.
f - Относительная влажность воздуха - влажноcть воздуха, измеренная на высоте 2 м над землей.
Te - Эффективная температура - температура, которую ощущает одетый по сезону человек в тени. Характеристика душности погоды. При расчете учитывается влияние влажности воздуха и скорости ветра на теплоощущения человека.
Tes - Эффективная температура на солнце - температура, которую ощущает человек, с поправкой на солнечный нагрев. Характеристика знойности погоды. Зависит от высоты солнца над горизонтом, облачности и скорости ветра. Ночью, в пасмурную погоду, а также при ветре 12 м/с и более поправка равна нулю.
P - Атмосферное давление - приведенное к уровню моря атмосферное давление.
Po - Атмосферное давление - измеренное на уровне метеостанции атмосферное давление.
Tmin - Минимальная температура - минимум температуры воздуха на высоте 2 м над землей.
Tmax - Максимальная температура - максимум температуры воздуха на высоте 2 м над землей.
R - Количество осадков - Количество выпавших осадков за период времени, мм. При наведении курсора мыши на число - период времени, за который выпало указанное количество осадков.
R24 - Количество осадков - Количество выпавших осадков за 24 часа, мм.
S - Снежный покров - Высота снежного покрова, см. При наведении курсора мыши на число - состояние снежного покрова и степень покрытия местности в баллах.